Preview of NWS' New Version of Forecast
This preview is not operational and should not be used for support decisions.

Regional Weather Roundup (RWR)

Issued by National Weather Service (NWS)

                            
000
ASUS44 KJAN 240510
RWRMS 

MISSISSIPPI HOURLY WEATHER ROUNDUP
NATIONAL WEATHER SERVICE JACKSON MS
1200 AM CDT WED APR 24 2019

NOTE: "FAIR: INDICATES FEW OR NO CLOUDS BELOW 12,000 FEET WITH NO
SIGNIFICANT WEATHER AND/OR OBSTRUCTIONS TO VISIBILITY.

MSZ001>002-007>008-010>013-018>021-025>028-034>036-240600-
NORTHWEST MISSISSIPPI
  
CITY           SKY/WX    TMP DP  RH WIND       PRES   REMARKS
BATESVILLE       N/A     57  55  94 CALM      30.00F                  
CLARKSDALE     PTCLDY    66  61  82 S8        29.99S                  
CLEVELAND      FAIR      64  58  78 S3        30.01R                  
GREENWOOD      FAIR      61  57  87 S5        30.01F                  
GREENVILLE     FAIR      63  58  83 S6        30.00R                  
OLIVE BRANCH   CLEAR     59  59 100 S6        29.98F                  
OXFORD         FAIR      55  54  94 CALM      30.02S                  
TUNICA           N/A     63  55  77 S6        29.99S                  
WINONA         FAIR      55  55 100 CALM      30.02S                  
$$

MSZ003>006-009-014>017-022>024-029>033-037>039-240600-
NORTHEAST MISSISSIPPI
  
CITY           SKY/WX    TMP DP  RH WIND       PRES   REMARKS
ABERDEEN       FAIR      55  55 100 CALM      30.03S FOG              
COLUMBUS AFB   FAIR      57  54  89 CALM      30.01F                  
CORINTH        FAIR      57  54  88 CALM      30.01S                  
GOLDN TRIANGLE FAIR      62  56  80 S3        30.03S                  
STARKVILLE     FAIR      54  52  94 CALM      30.04R                  
TUPELO         FAIR      60  55  83 CALM      30.01S                  
$$

MSZ040-058-240600-
CENTRAL MISSISSIPPI
  
CITY           SKY/WX    TMP DP  RH WIND       PRES   REMARKS
JACKSON INTL   FAIR      63  57  81 SE5       30.03S                  
JACKSON HAWKNS FAIR      65  59  81 SW5       30.04S                  
MADISON        FAIR      63  61  94 CALM      30.03S                  
MERIDIAN KEY   FAIR      65  60  84 S6        30.04F                  
MERIDIAN NAS   CLOUDY    65  61  87 SW6       30.04F                  
RAYMOND        FAIR      63  63 100 CALM      30.03R                  
VICKSBURG VKS  MOCLDY    66  61  82 CALM      30.03S                  
$$

MSZ059>079-240600-
SOUTH MISSISSIPPI
  
CITY           SKY/WX    TMP DP  RH WIND       PRES   REMARKS
HATTIESBURG    FAIR      59  57  93 CALM      30.06F                  
LAUREL         CLEAR     64  59  84 S5        30.05F                  
MCCOMB         FAIR      62  57  83 CALM      30.04R                  
NATCHEZ        FAIR      65  60  84 S5        30.03F                  
PINE BELT      FAIR      58  57  97 CALM      30.06F                  
$$

MSZ080>082-240600-
COASTAL MISSISSIPPI
  
CITY           SKY/WX    TMP DP  RH WIND       PRES   REMARKS
BILOXI         FAIR      69  63  82 S5        30.04F                  
PASCAGOULA     FAIR      61  58  90 CALM      30.05F                  
GULFPORT       MOCLDY    65  63  93 CALM      30.04F                  
$$

LAZ007>009-015>016-023>026-240600-
NORTHEAST LOUISIANA
  
CITY           SKY/WX    TMP DP  RH WIND       PRES   REMARKS
BASTROP        FAIR      65  65  98 S3        30.02R                  
TALLULAH/VBURG FAIR      65  61  87 CALM      30.02F                  
VIDALIA        FAIR      66  61  85 SE6       30.01F                  
$$